AQI (29)

Current Conditions for Foresthill, CA. Overcast, patchy fog, Dry   
Visibility: 10 miles
Cloud ht: 700 ft Foresthill Advisory text: No Warning

  Summary / Temperature 

Current Temperature
42.3°F
5.7°C
(24/hr Ago)
41.1°F
(Apparent temp)
40.3°F
Wind Chill Graphs
42.4°F 
Wind Chill-Avg
43.7°F 6.5°C
 --- Virtual Temp: 44.2°F ---

 Temp Rate:

 24/hr Difference:

 Avg Running Temp:

 Todays High:

 Todays Low:

 Y-days High:

 Y-days Low:

 Todays WChill:

 Y-days WChill:

 Evapotranspiration:

-0.9°F/hr 

+1.2°F

43.8°F

45.3°F 3:36pm

38.7°F 6:28am

42.7°F 1:19pm

39.7°F 10:18pm

32.9°F 6:04am

31.6°F 7:49am

0.035 in

115' Above Ground

 Temperature:

 6'AGL VRS 115'AGL:

 Avg Running Temp:

 Humidity:

 Todays High:

 Todays Low:

 Y-days High:

 Y-days Low:

45.0°F 

+2.7°F

46.5°F

81% 

50.0°F 2:28pm

40.0°F 12:00am

42.0°F 12:53pm

39.0°F 12:28am

Temp & Humidity Graphs

  Wind 

Wind Speed

 Calm

Gusting to

 None

Calm

192°  

Calm

 Avg speed:

 Wind Run:

 Peak Gust:

Calm 

12.0 miles

  9.0 mph 4:27am

  Almanac  

Moon age: 25 days,15 hours,47 minutes,16%

Waning Crescent
11%
Illuminated
26 days in cycle

 Moonrise:

 Moonset:

 Sunrise:

 Sunset:

 Solar Noon:

3:36am

2:25pm

7:15am

4:42pm

12:00pm

0min 14s less daylight tomorrow 

  Solar Radiation 

(Current Solar)
  No Sun Light
(Todays High)
 647 W/m2@12:25pm

Rain

 Rain Today:

 Rain Rate (/hr):

 Rain last hour:

 Rain Yesterday:

 This Month:

 Season Total:

3 Days Since Last Dry Day

0.00 in

0.000 in

0.00 in

0.58 in

12.05 in

22.66 in

Updated Time

Updated: 12/18/14  5:28pm

(Updated  sec ago)

Humidity & Barometer

 Humidity:

 Wetbulb:

 Dew Point:

 Barometer:

95% 

41.7°F 

41.0°F 

30.250 inHg 

 Baro Trend:  Steady 
Northern Calif
Preparedness
Fire 
Level 

    UV Index  

(Current UV)
0.0  None
(Todays High) @ 12:23pm
2.4   Low

Weather Underground 5 day Forecast

Foresthill Probe 2 Stats  
Foresthill Probe 2: is located on Thomas Street
at 3000 feet. The main Foresthill Weather site
is located on Melody ln at the 2860 foot elevation

Calm
41.7°F
5.4°C
Temp Rate:
-1.7°F
Calm
Gusting to
None
(Humidity)
92%
Calm
217°  
Updated: 18/12/14 - 17:28:08
 Todays High: 46.8°F 14:09
 Todays Low: 36.9°F 06:13
 Rain Today: 0.01 in
 Season Total: 21.59 in

Foresthill Wx: Monthly,Yearly, Highs and Lows 

Infrared Satellite Regional Radar Satellite Imagery Sacramento,CA.  (click to enlarge)
NWS Weather Forecast - Outlook: Tonight and Friday
Tonight

Slight Chc Rain. Chance for Measurable Precipitation 20%
Slight Chc
Rain
Lo 41 °F
NWS forecast: A 20 percent chance of rain after 10pm. Mostly cloudy, with a low around 41. Southeast wind 5 to 7 mph. New precipitation amounts of less than a tenth of an inch possible.
Friday

Rain Likely. Chance for Measurable Precipitation 70%
Rain
Likely
Hi 47 °F
NWS forecast: Rain likely. Cloudy, with a high near 47. South southeast wind 7 to 9 mph. Chance of precipitation is 70%. New precipitation amounts between a quarter and half of an inch possible.
NWS Weather Forecast - Summary
Updated: Thursday, December 18, 2014 - 5:00am (PST)
YR.NO 10 Day Weather forecast
Last update: 12/18/2014 @ 11:12
Next update: 12/19/2014 @ 00:00
Provided by: 22
      Temperature Precipitation Pressure Wind  
Today
12/18/2014
16:00 19:00 46°F   30.16 inHg Light air from southwest 3 mph
  19:00 01:00 39°F 0.07 in 30.19 inHg Light breeze from east 4 mph
    (Click to enlarge)
meteogram

    Forecast for next 9 days

      Temperature Precip Pressure Wind  
Friday
12/19/2014
01:00 07:00 37°F 0.22 in 30.22 inHg Light breeze from east 4 mph
  07:00 13:00 37°F 0.18 in 30.19 inHg Light breeze from east 4 mph
  13:00 19:00 39°F 0.14 in 30.20 inHg Light breeze from east-southeast 5 mph
  19:00 01:00 39°F < 0.01 in 30.20 inHg Light air from east 3 mph
      Temperature Precip Pressure Wind  
Saturday
12/20/2014
01:00 07:00 37°F   30.21 inHg Light air from east 3 mph
  07:00 13:00 36°F   30.25 inHg Light breeze from east 4 mph
  13:00 19:00 50°F < 0.01 in 30.23 inHg Light air from southwest 1 mph
  19:00 01:00 43°F < 0.01 in 30.29 inHg Light air from east 3 mph
  22:00 04:00 43°F 0.02 in 30.30 inHg Light air from east 3 mph
      Temperature Precip Pressure Wind  
Sunday
12/21/2014
04:00 10:00 43°F < 0.01 in 30.31 inHg Light air from east 3 mph
  10:00 16:00 48°F   30.33 inHg Light air from east-northeast 2 mph
  16:00 22:00 52°F   30.25 inHg Light air from west-northwest 3 mph
  22:00 04:00 36°F   30.27 inHg Light air from east-northeast 2 mph
      Temperature Precip Pressure Wind  
Monday
12/22/2014
04:00 10:00 32°F   30.23 inHg Light air from east-northeast 3 mph
  10:00 16:00 50°F   30.26 inHg Light air from east-northeast 3 mph
  16:00 22:00 55°F   30.20 inHg Light air from northeast 2 mph
  22:00 04:00 36°F   30.20 inHg Light air from east-northeast 2 mph
      Temperature Precip Pressure Wind  
Tuesday
12/23/2014
04:00 10:00 32°F   30.17 inHg Light air from east-northeast 3 mph
  10:00 16:00 52°F   30.19 inHg Light air from east-northeast 3 mph
  16:00 22:00 55°F   30.10 inHg Light air from east-northeast 2 mph
  22:00 04:00 36°F   30.09 inHg Light air from east-northeast 3 mph
      Temperature Precip Pressure Wind  
Wednesday
12/24/2014
04:00 10:00 32°F   30.01 inHg Light air from east-northeast 3 mph
  10:00 16:00 50°F   29.99 inHg Light air from east 3 mph
  16:00 22:00 50°F   29.92 inHg Light air from west-southwest 3 mph
  22:00 04:00 36°F   29.95 inHg Light air from east-northeast 2 mph
      Temperature Precip Pressure Wind  
Thursday
12/25/2014
04:00 10:00 34°F   29.97 inHg Gentle breeze from east-northeast 8 mph
  10:00 16:00 45°F   30.00 inHg Gentle breeze from east-northeast 10 mph
  16:00 22:00 46°F   29.94 inHg Light breeze from east-northeast 5 mph
  22:00 04:00 34°F   30.04 inHg Light breeze from east-northeast 7 mph
      Temperature Precip Pressure Wind  
Friday
12/26/2014
04:00 10:00 32°F   30.02 inHg Light breeze from east-northeast 6 mph
  10:00 16:00 45°F   30.05 inHg Light air from east-northeast 2 mph
  16:00 22:00 46°F   29.99 inHg Light air from west 2 mph
  22:00 04:00 36°F   30.01 inHg Light breeze from east-northeast 4 mph
      Temperature Precip Pressure Wind  
Saturday
12/27/2014
04:00 10:00 32°F   29.98 inHg Light breeze from east-northeast 5 mph
  10:00 16:00 46°F   30.02 inHg Light air from east 2 mph
  16:00 22:00 46°F   30.00 inHg Light air from west-southwest 2 mph
  22:00 04:00 32°F   30.04 inHg Light air from east 3 mph

Weather History For Thursday, December 18, 2014


On this Day - In Weather History ...
Data courtesy of weatherforyou.com
powered by Cumulus v1.9.3 (1059)
Ambient Weather VWS v14.00
Top Contact Website Map Copyright © 2007 - 2014 Foresthillweather.com Never base important decisions on this or any weather information obtained from the Internet